Weather History for KPSX - March, 2013

Change the Weather History Date:

Saturday, March 30, 2013

  Actual Average Record
Temperature  
Mean Temperature 69 °F -  
Max Temperature 79 °F 72 °F 84 °F (1946)
Min Temperature 60 °F 54 °F 34 °F (1987)
Cooling Degree Days 4    
Growing Degree Days 19 (Base 50)    
Moisture  
Dew Point 63 °F    
Average Humidity 78    
Maximum Humidity 90    
Minimum Humidity 62    
Precipitation  
Precipitation 0.00 in - - ()
Sea Level Pressure  
Sea Level Pressure 30.05 in    
Wind  
Wind Speed 9 mph (SSE)    
Max Wind Speed 18 mph    
Max Gust Speed 23 mph    
Visibility 9 miles    
Events      
Averages and records for this station are not official NWS values.
T = Trace of Precipitation, MM = Missing Value Source: NWS Daily Summary

Daily Weather History Graph

Daily Weather History Graph

Search for Another Location

Airport or City:

Trip Planner

Search our weather history database for the weather conditions in past years. The results will help you decide how hot, cold, wet, or windy it might be!

Date:

Astronomy

Mar. 30, 2013 Rise Set
Actual Time 7:16 AM CDT 7:42 PM CDT
Civil Twilight 6:53 AM CDT 8:05 PM CDT
Nautical Twilight 6:25 AM CDT 8:33 PM CDT
Astronomical Twilight 5:57 AM CDT 9:01 PM CDT
Moon 11:30 PM CDT (3/30) 9:31 AM CDT (3/30)
Length of Visible Light 13h 12m
Length of Day
12h 25m
Waning Gibbous, 86% of the Moon is Illuminated
Mar 30
Waning Gibbous
Apr 2
Last Quarter
Apr 10
New
Apr 18
First Quarter
Apr 25
Full

Hourly Weather History & Observations

Time (CDT) Temp. Dew Point Humidity Pressure Visibility Wind Dir Wind Speed Gust Speed Precip Events Conditions
12:53 AM 66.9 °F 62.1 °F 84% 30.13 in 10.0 mi SSE 5.8 mph - N/A   Clear
1:53 AM 69.1 °F 63.0 °F 81% 30.11 in 10.0 mi SSE 9.2 mph - N/A   Mostly Cloudy
2:53 AM 64.9 °F 61.0 °F 87% 30.10 in 10.0 mi SSE 6.9 mph - N/A   Clear
3:53 AM 64.9 °F 61.0 °F 87% 30.08 in 10.0 mi SSE 5.8 mph - N/A   Clear
4:53 AM 64.9 °F 61.0 °F 87% 30.07 in 10.0 mi ESE 3.5 mph - N/A   Clear
5:53 AM 63.0 °F 60.1 °F 90% 30.08 in 7.0 mi ESE 4.6 mph - N/A   Clear
6:53 AM 61.0 °F 57.9 °F 90% 30.07 in 1.8 mi ESE 4.6 mph - N/A   Partly Cloudy
6:57 AM 60.8 °F 57.2 °F 88% 30.08 in 4.0 mi SE 4.6 mph - N/A   Clear
7:53 AM 64.9 °F 62.1 °F 90% 30.09 in 7.0 mi SSE 5.8 mph - N/A   Clear
8:53 AM 69.1 °F 64.9 °F 87% 30.11 in 10.0 mi SE 3.5 mph - N/A   Clear
9:53 AM 73.0 °F 63.0 °F 71% 30.10 in 10.0 mi SE 6.9 mph - N/A   Clear
10:53 AM 75.0 °F 63.0 °F 66% 30.11 in 10.0 mi South 11.5 mph - N/A   Clear
11:53 AM 75.0 °F 62.1 °F 64% 30.09 in 10.0 mi South 17.3 mph - N/A   Clear
12:53 PM 77.0 °F 63.0 °F 62% 30.08 in 10.0 mi SSE 18.4 mph 23.0 mph N/A   Clear
1:53 PM 78.1 °F 64.0 °F 62% 30.06 in 10.0 mi South 13.8 mph 20.7 mph N/A   Clear
2:53 PM 78.1 °F 64.9 °F 64% 30.04 in 10.0 mi SSE 12.7 mph 20.7 mph N/A   Clear
3:53 PM 77.0 °F 64.9 °F 66% 30.01 in 10.0 mi South 16.1 mph - N/A   Clear
4:53 PM 77.0 °F 64.9 °F 66% 29.99 in 10.0 mi South 18.4 mph - N/A   Partly Cloudy
5:53 PM 77.0 °F 66.0 °F 69% 29.99 in 10.0 mi South 17.3 mph - N/A   Mostly Cloudy
6:53 PM 73.9 °F 66.0 °F 76% 29.98 in 10.0 mi SSE 17.3 mph - N/A   Clear
7:53 PM 72.0 °F 66.0 °F 81% 29.98 in 10.0 mi SSE 13.8 mph - N/A   Clear
8:53 PM 71.1 °F 66.0 °F 84% 29.98 in 10.0 mi SSE 11.5 mph - N/A   Clear
9:53 PM 71.1 °F 66.0 °F 84% 29.99 in 10.0 mi South 12.7 mph - N/A   Clear
10:53 PM 71.1 °F 66.0 °F 84% 30.00 in 10.0 mi South 11.5 mph - N/A   Clear
11:53 PM 70.0 °F 66.0 °F 87% 29.99 in 10.0 mi SSE 11.5 mph - N/A   Clear